[[{"header":{"parameterUnit":"m.s-1","parameterCategory":1,"la1":30.2991,"la2":30.254,"lo1":-89.0895,"lo2":-89.0444,"dy":0.0017,"dx":0.0017,"nx":28,"ny":28,"refTime":"2026-03-02T09:00:00:Z","depth":0,"parameterNumber":2,"parameterNumberName":"U-component_of_WINDS"},"data":[0,0,0,0,0,0,0,0,0,0,0,0,0,0,0,0,0,0,0,0,0,0,0,0,0,0,0,0,0,0,0,0,0,0,0,0,0,0,0,0,0,0,0,0,0,0,0,0,0,0,0,0,0,0,0,0,0,0,-3.4348,-3.4349,0,-3.4438,-3.4439,-3.444,-3.4436,-3.4434,-3.4433,-3.4432,-3.4523,-3.4527,-3.453,0,0,0,0,0,0,0,0,0,0,0,0,0,-3.4172,-3.4175,-3.4348,-3.4349,-3.435,-3.4438,-3.4439,-3.444,-3.4436,-3.4434,-3.4433,-3.4431,-3.4522,-3.4526,-3.4531,0,0,0,0,0,0,0,0,0,0,0,0,0,-3.4254,-3.4176,-3.4347,-3.4358,-3.436,-3.4438,-3.4439,-3.4441,-3.4436,-3.4434,-3.4432,-3.4431,-3.4521,-3.4526,-3.4531,-3.4603,0,0,-3.4548,-3.455,0,0,0,0,0,0,0,0,-3.4249,-3.426,-3.4356,-3.4358,-3.436,-3.4424,-3.4411,-3.4495,-3.4437,-3.4407,-3.4432,-3.443,-3.4492,-3.4499,-3.452,-3.4607,-3.4611,-3.4548,-3.4552,-3.4554,-3.4555,0,0,0,0,0,0,0,-3.4243,-3.4256,-3.4383,-3.4357,-3.436,-3.4359,-3.4368,-3.4427,-3.4459,-3.441,-3.441,-3.4421,-3.4492,-3.4515,-3.4522,-3.4613,-3.4548,-3.4553,-3.4556,-3.4558,-3.4765,-3.4767,0,0,0,0,0,0,-3.4235,-3.4252,-3.438,-3.4386,-3.4299,-3.4364,-3.4374,-3.4405,-3.4458,-3.4465,-3.4422,-3.442,-3.4507,-3.4516,-3.4526,-3.4614,-3.4554,-3.4559,-3.4562,-3.4763,-3.4765,-3.4768,0,0,0,0,0,0,-3.4232,-3.4247,-3.4377,-3.4319,-3.4335,-3.4369,-3.4403,-3.4408,-3.4431,-3.4468,-3.4473,-3.4439,-3.4506,-3.4518,-3.4584,-3.4617,-3.4561,-3.4566,-3.476,-3.4764,-3.4767,-3.479,0,0,0,0,0,0,-3.4227,-3.4246,-3.4273,-3.432,-3.4338,-3.4434,-3.4405,-3.4411,-3.444,-3.4438,-3.4485,-3.4491,-3.4505,-3.4576,-3.459,-3.4623,-3.4571,-3.4757,-3.4762,-3.4766,-3.4786,-3.4794,-3.48,0,0,0,0,0,-3.422,-3.4275,-3.4274,-3.429,-3.4373,-3.4436,-3.4446,-3.4461,-3.4443,-3.4471,-3.4495,-3.449,-3.4612,-3.4583,-3.4598,-3.4634,-3.4755,-3.476,-3.4765,-3.4783,-3.4792,-3.48,0,0,0,0,0,0,-3.423,-3.4282,-3.4281,-3.4353,-3.439,-3.4435,-3.447,-3.447,-3.4513,-3.4509,-3.4526,-3.4537,-3.4603,-3.4626,-3.4593,-3.4707,-3.4681,-3.4689,-3.469,-3.4698,-3.4705,-3.4698,-3.4575,0,0,0,0,0,-3.4241,-3.4288,-3.433,-3.4389,-3.4408,-3.4436,-3.4464,-3.4472,-3.4511,-3.4527,-3.4556,-3.4594,-3.4641,-3.4671,-3.4716,-3.4791,-3.4801,-3.4823,-3.483,-3.4835,-3.4841,-3.4883,-3.4893,-3.4784,-3.4784,-3.4784,0,0,-3.4263,-3.4297,-3.4325,-3.4392,-3.4422,-3.447,-3.4449,-3.45,-3.4536,-3.4535,-3.4599,-3.4622,-3.4666,-3.4736,-3.4769,-3.4757,-3.4874,-3.4841,-3.4845,-3.4849,-3.4889,-3.49,-3.4909,-3.4788,-3.4787,-3.4787,0,0,-3.4328,-3.4359,-3.4411,-3.4443,-3.4489,-3.4507,-3.452,-3.4566,-3.4581,-3.4647,-3.4647,-3.469,-3.477,-3.4802,-3.4828,-3.4908,-3.4905,-3.4923,-3.4957,-3.4998,-3.5006,-3.5014,-3.5042,-3.5052,-3.493,-3.493,-3.493,0,-3.4349,-3.4422,-3.4439,-3.4491,-3.452,-3.4523,-3.4577,-3.4606,-3.4664,-3.4685,-3.4671,-3.4773,-3.4803,-3.4881,-3.4901,-3.4923,-3.4938,-3.4916,-3.5004,-3.5012,-3.5019,-3.5046,-3.5057,-3.4931,-3.4931,-3.4931,-3.4931,0,-3.4446,-3.4496,-3.4533,-3.4591,-3.4625,-3.4677,-3.4703,-3.4736,-3.4742,-3.4763,-3.483,-3.4866,-3.4919,-3.4939,-3.4946,-3.5019,-3.501,-3.5,-3.4974,-3.5031,-3.5057,-3.5068,-3.4934,-3.4933,-3.4933,-3.4932,0,0,-3.4516,-3.4584,-3.4598,-3.4624,-3.4677,-3.4716,-3.477,-3.4822,-3.485,-3.4891,-3.4937,-3.5006,-3.4998,-3.5028,-3.5039,-3.5074,-3.5136,-3.506,-3.5061,-3.5072,-3.522,-3.5226,-3.5238,-3.5135,-3.5137,-3.5139,-3.5216,0,-3.4585,-3.468,-3.4699,-3.4781,-3.4828,-3.4833,-3.488,-3.4918,-3.4939,-3.4983,-3.5006,-3.5055,-3.504,-3.5059,-3.5095,-3.5121,-3.5165,-3.5116,-3.5177,-3.5179,-3.5164,-3.5251,-3.5257,-3.5328,-3.5226,-3.5228,-3.5229,0,-3.4678,-3.4723,-3.481,-3.4858,-3.4879,-3.492,-3.4971,-3.5013,-3.5056,-3.5069,-3.5104,-3.5112,-3.5168,-3.5142,-3.522,-3.5186,-3.5213,-3.523,-3.5233,-3.5238,-3.5206,-3.5257,-3.5351,-3.5361,-3.5245,-3.5244,-3.5243,0,-3.472,-3.4802,-3.4865,-3.4888,-3.4946,-3.4975,-3.5,-3.5042,-3.5073,-3.5118,-3.5139,-3.5189,-3.5217,-3.5256,-3.5277,-3.5256,-3.5355,-3.5329,-3.5367,-3.5366,-3.5385,-3.5384,-3.5483,-3.5405,-3.5405,-3.5405,-3.5405,0,-3.4794,-3.4848,-3.4885,-3.4924,-3.4984,-3.5005,-3.5065,-3.509,-3.5127,-3.5171,-3.5179,-3.522,-3.5247,-3.5292,-3.5309,-3.5372,-3.5384,-3.5397,-3.54,-3.5395,-3.5393,-3.5411,-3.5406,-3.5408,-3.5407,-3.5407,-3.5406,0,-3.485,-3.4877,-3.4947,-3.4997,-3.501,-3.5053,-3.5095,-3.5134,-3.5156,-3.5212,-3.5226,-3.5262,-3.5316,-3.5342,-3.5408,-3.542,-3.5491,-3.5492,-3.5476,-3.5477,-3.5513,-3.5509,-3.5627,-3.5643,-3.5555,-3.5556,-3.5557,0,-3.4895,-3.4936,-3.4991,-3.5022,-3.5048,-3.5097,-3.5129,-3.5153,-3.5186,-3.524,-3.5272,-3.5327,-3.5371,-3.5458,-3.5489,-3.5541,-3.5543,-3.5581,-3.555,-3.5544,-3.5542,-3.5539,-3.5543,-3.5585,-3.5586,-3.5587,-3.5587,0,-3.4971,-3.4984,-3.503,-3.5082,-3.5121,-3.5163,-3.5204,-3.5229,-3.5259,-3.5297,-3.5352,-3.5387,-3.5456,-3.551,-3.5565,-3.5591,-3.5595,-3.5597,-3.5608,-3.5602,-3.5591,-3.5597,-3.549,-3.5594,-3.5593,-3.5592,-3.5592,-3.5592,-3.5022,-3.506,-3.5105,-3.5157,-3.5191,-3.523,-3.5269,-3.5297,-3.5344,-3.5402,-3.5414,-3.5473,-3.5518,-3.5591,-3.562,-3.5667,-3.5658,-3.5675,-3.5679,-3.5682,-3.5684,-3.5586,-3.5677,-3.5677,-3.5677,-3.5677,-3.5677,0,-3.5099,-3.5129,-3.5177,-3.5235,-3.5276,-3.5277,-3.5324,-3.5358,-3.541,-3.5452,-3.5496,-3.5561,-3.5615,-3.5652,-3.5706,-3.5737,-3.574,-3.575,-3.5747,-3.5754,-3.5689,-3.5673,-3.5747,-3.5747,-3.5747,-3.5747,-3.5747,-3.5747,-3.5143,-3.5206,-3.5224,-3.5305,-3.5335,-3.5393,-3.542,-3.5456,-3.549,-3.5562,-3.5607,-3.5631,-3.5671,-3.5729,-3.5779,-3.5788,-3.5808,-3.5818,-3.5827,-3.5766,-3.5758,-3.5751,-3.5736,-3.5822,-3.5823,-3.5889,-3.5889,-3.589]},{"header":{"parameterUnit":"m.s-1","parameterCategory":1,"la1":30.2991,"la2":30.254,"lo1":-89.0895,"lo2":-89.0444,"dy":0.0017,"dx":0.0017,"nx":28,"ny":28,"refTime":"2026-03-02T09:00:00:Z","depth":0,"parameterNumber":3,"parameterNumberName":"V-component_of_WINDS"},"data":[0,0,0,0,0,0,0,0,0,0,0,0,0,0,0,0,0,0,0,0,0,0,0,0,0,0,0,0,0,0,0,0,0,0,0,0,0,0,0,0,0,0,0,0,0,0,0,0,0,0,0,0,0,0,0,0,0,0,3.0122,3.0123,0,3.0266,3.0267,3.0269,3.0299,3.0298,3.0297,3.0296,3.0437,3.0442,3.0447,0,0,0,0,0,0,0,0,0,0,0,0,0,2.987,2.9875,3.0121,3.0123,3.0125,3.0265,3.0267,3.0269,3.0299,3.0298,3.0296,3.0295,3.0436,3.0441,3.0447,0,0,0,0,0,0,0,0,0,0,0,0,0,2.9993,2.9876,3.0121,3.0157,3.0162,3.0265,3.0267,3.027,3.0299,3.0298,3.0296,3.0294,3.0434,3.0441,3.0448,3.0524,0,0,3.047,3.0473,0,0,0,0,0,0,0,0,2.9986,3.0002,3.015,3.0155,3.016,3.0263,3.0231,3.0355,3.03,3.0247,3.0295,3.0294,3.038,3.0392,3.0422,3.0531,3.0537,3.047,3.0475,3.0478,3.048,0,0,0,0,0,0,0,2.9978,2.9996,3.0178,3.0152,3.0158,3.0165,3.0181,3.0254,3.032,3.0251,3.0254,3.0271,3.0383,3.0415,3.0426,3.0539,3.047,3.0477,3.0481,3.0484,3.0723,3.0724,0,0,0,0,0,0,2.9963,2.9989,3.0174,3.0183,3.0068,3.0171,3.0189,3.0231,3.032,3.0332,3.0272,3.0272,3.0404,3.0417,3.0431,3.0529,3.0478,3.0485,3.0489,3.0721,3.0723,3.0725,0,0,0,0,0,0,2.9958,2.9979,3.0168,3.0087,3.0111,3.0177,3.0225,3.0235,3.0267,3.0336,3.0347,3.0293,3.0403,3.0421,3.0502,3.0534,3.0488,3.0494,3.0718,3.0721,3.0724,3.0724,0,0,0,0,0,0,2.995,2.9977,3.0007,3.0087,3.0116,3.0238,3.0227,3.0239,3.028,3.0281,3.0358,3.037,3.0403,3.0491,3.0509,3.0543,3.05,3.0716,3.072,3.0723,3.0722,3.0727,3.0732,0,0,0,0,0,2.9941,2.9999,3.0008,3.003,3.0154,3.0239,3.0255,3.0294,3.0283,3.0314,3.0358,3.0367,3.0528,3.05,3.052,3.0556,3.0714,3.0718,3.0723,3.072,3.0726,3.0731,0,0,0,0,0,0,2.9918,3.001,3.0021,3.0107,3.0166,3.0244,3.0284,3.0299,3.036,3.0358,3.0402,3.042,3.05,3.0536,3.0503,3.0637,3.062,3.0629,3.0611,3.0617,3.0622,3.0612,3.0506,0,0,0,0,0,2.9923,2.9985,3.0062,3.013,3.016,3.0217,3.0255,3.0281,3.0342,3.0366,3.0417,3.0475,3.0539,3.058,3.0642,3.0727,3.0746,3.0763,3.0768,3.0771,3.0779,3.083,3.0839,3.074,3.074,3.074,0,0,2.9933,2.9991,3.0027,3.0127,3.0176,3.024,3.0237,3.0303,3.0352,3.0376,3.0458,3.0497,3.0565,3.065,3.0689,3.0683,3.0811,3.0777,3.078,3.0785,3.0836,3.0845,3.0853,3.0743,3.0743,3.0742,0,0,2.9985,3.0035,3.0099,3.0149,3.0224,3.0263,3.0278,3.0356,3.0384,3.0467,3.0488,3.0545,3.0654,3.0703,3.0742,3.0819,3.083,3.0837,3.0863,3.0913,3.092,3.0928,3.0957,3.0967,3.0844,3.0844,3.0844,0,2.9988,3.0087,3.013,3.0198,3.0242,3.027,3.0336,3.0382,3.0472,3.0502,3.0494,3.0634,3.0681,3.078,3.08,3.0829,3.0849,3.0829,3.0916,3.0924,3.0931,3.096,3.0971,3.0845,3.0845,3.0845,3.0845,0,3.0088,3.0156,3.0199,3.029,3.0339,3.0405,3.0458,3.0503,3.0525,3.0565,3.0651,3.071,3.0786,3.0812,3.0832,3.0914,3.0908,3.0907,3.0891,3.094,3.0968,3.098,3.0846,3.0846,3.0845,3.0845,0,0,3.0126,3.0244,3.0259,3.0303,3.0389,3.0443,3.0511,3.0589,3.0628,3.069,3.075,3.0843,3.0845,3.0889,3.0916,3.0959,3.102,3.0954,3.0956,3.0966,3.1118,3.1119,3.1131,3.1029,3.1031,3.1033,3.1113,0,3.0191,3.0316,3.0359,3.0463,3.0528,3.0558,3.0619,3.0679,3.0718,3.0779,3.0822,3.0889,3.0884,3.0912,3.0957,3.1003,3.1052,3.0998,3.1085,3.1088,3.1068,3.1145,3.1146,3.1219,3.1124,3.1126,3.1127,0,3.0282,3.035,3.0461,3.0544,3.0573,3.0626,3.0704,3.0761,3.0831,3.0857,3.0909,3.0934,3.1008,3.0988,3.1091,3.1054,3.1092,3.1121,3.1125,3.1135,3.1111,3.1159,3.1242,3.1254,3.1144,3.1143,3.1142,0,3.0302,3.0421,3.0504,3.054,3.0638,3.0676,3.0718,3.0786,3.0832,3.0899,3.093,3.1003,3.1044,3.1101,3.1145,3.1126,3.1245,3.1228,3.127,3.1269,3.1293,3.1291,3.1385,3.1316,3.1315,3.1315,3.1315,0,3.037,3.0437,3.0515,3.0566,3.0644,3.0693,3.0768,3.0812,3.0873,3.0934,3.0963,3.1019,3.1074,3.1137,3.1172,3.1254,3.1271,3.1295,3.1304,3.1293,3.1291,3.1319,3.1316,3.1318,3.1318,3.1317,3.1316,0,3.0405,3.046,3.0553,3.064,3.0664,3.0717,3.0792,3.0843,3.0886,3.0962,3.0983,3.1049,3.1126,3.1177,3.1273,3.1297,3.1387,3.1393,3.1364,3.1369,3.1409,3.1405,3.1525,3.1545,3.146,3.1461,3.1462,0,3.0445,3.0498,3.0593,3.0637,3.0681,3.0751,3.0799,3.0851,3.09,3.0986,3.1027,3.1107,3.1173,3.1294,3.135,3.1425,3.1435,3.1472,3.1446,3.1435,3.1438,3.1435,3.1442,3.1476,3.1477,3.1477,3.1478,0,3.0511,3.0537,3.0607,3.0687,3.0745,3.081,3.0875,3.0909,3.0972,3.1026,3.1106,3.1158,3.126,3.1339,3.142,3.1463,3.1482,3.1486,3.15,3.149,3.1472,3.1485,3.1377,3.1483,3.1482,3.1482,3.1482,3.1481,3.0552,3.0602,3.0679,3.0756,3.0812,3.0873,3.0927,3.0978,3.1047,3.1136,3.1162,3.1247,3.1318,3.143,3.1475,3.1542,3.1538,3.1557,3.1562,3.1567,3.1569,3.1461,3.1556,3.1556,3.1556,3.1556,3.1556,0,3.0622,3.0674,3.0745,3.0837,3.0899,3.0914,3.0988,3.1038,3.1113,3.118,3.1246,3.1341,3.1419,3.1483,3.1564,3.1605,3.1616,3.1625,3.1622,3.1633,3.1566,3.1548,3.1615,3.1615,3.1615,3.1615,3.1615,3.1615,3.0666,3.0754,3.0789,3.0905,3.0956,3.1042,3.1083,3.1141,3.1195,3.13,3.1366,3.1409,3.1475,3.1562,3.1634,3.1651,3.168,3.1688,3.1707,3.1643,3.1637,3.1631,3.1613,3.1693,3.1693,3.1768,3.1768,3.1769]}]]